Sigfox identifier Datetime Temperature Humidity SNR
002EF6D0 2019-04-23 14:53:22 15.8 34 21.5
002EF6D0 2019-04-23 14:19:10 15.8 34 21.4
002EF6D0 2019-04-23 13:44:59 15.8 34 20.7
002EF6D0 2019-04-23 13:10:48 15.8 34 20.5
002EF6D0 2019-04-23 12:36:36 15.6 34 20.5
002EF6D0 2019-04-23 12:02:25 15.6 34 20.3
002EF6D0 2019-04-23 11:28:13 15.6 34 20.1
002EF6D0 2019-04-23 10:54:02 15.6 33 19.9
002EF6D0 2019-04-23 10:19:50 15.6 33 19
002EF6D0 2019-04-23 09:45:39 15.6 33 18.2
002EF6D0 2019-04-23 09:11:28 15.6 33 17.3
002EF6D0 2019-04-23 08:37:16 15.5 33 16.5
002EF6D0 2019-04-23 08:03:07 15.6 33 15.2
002EF6D0 2019-04-23 06:54:42 15.6 33 15.3
002EF6D0 2019-04-23 05:46:18 15.6 33 15.2
002EF6D0 2019-04-23 05:12:06 15.6 33 15.3
002EF6D0 2019-04-23 04:37:54 15.6 33 15.3
002EF6D0 2019-04-23 04:03:42 15.6 33 15.4
002EF6D0 2019-04-23 03:29:31 15.6 33 15.6
002EF6D0 2019-04-23 02:55:19 15.6 33 15.9
002EF6D0 2019-04-23 02:21:08 15.6 33 15.9
002EF6D0 2019-04-23 01:46:56 15.6 33 15.8
002EF6D0 2019-04-23 01:12:44 15.6 33 15.9
002EF6D0 2019-04-23 00:38:32 15.6 33 15.8
002EF6D0 2019-04-23 00:04:19 15.6 33 15.8
002EF6D0 2019-04-22 23:30:08 15.6 33 15.8
002EF6D0 2019-04-22 22:55:56 15.6 33 15.8
002EF6D0 2019-04-22 22:21:44 15.7 33 15.8
002EF6D0 2019-04-22 21:47:34 15.7 33 15.7
002EF6D0 2019-04-22 21:13:20 15.7 33 15.5
002EF6D0 2019-04-22 20:39:07 15.7 33 18.6
002EF6D0 2019-04-22 20:04:54 15.7 33 18.5
002EF6D0 2019-04-22 19:30:41 15.7 33 18.4
002EF6D0 2019-04-22 18:56:28 15.6 33 18.3
002EF6D0 2019-04-22 18:22:15 15.6 33 18.3
002EF6D0 2019-04-22 17:48:02 15.8 33 18.1
002EF6D0 2019-04-22 17:13:51 15.6 33 18.1
002EF6D0 2019-04-22 16:39:37 15.6 33 18.1
002EF6D0 2019-04-22 16:05:25 15.6 33 18
002EF6D0 2019-04-22 15:31:13 15.6 33 18
002EF6D0 2019-04-22 14:57:00 15.6 33 18.1
002EF6D0 2019-04-22 14:22:48 15.6 33 18
002EF6D0 2019-04-22 13:48:37 15.6 33 18.1
002EF6D0 2019-04-22 13:14:25 15.6 33 17.9
002EF6D0 2019-04-22 12:40:12 15.6 33 17.9
002EF6D0 2019-04-22 12:06:00 15.6 33 17.8
002EF6D0 2019-04-22 11:31:51 15.6 33 17.9
002EF6D0 2019-04-22 10:57:38 15.6 33 17.9
002EF6D0 2019-04-22 10:23:29 15.5 33 18
002EF6D0 2019-04-22 09:49:16 15.4 33 17.9
002EF6D0 2019-04-22 09:15:05 15.5 33 17.9
002EF6D0 2019-04-22 08:40:53 15.5 33 17.9
002EF6D0 2019-04-22 08:06:42 15.5 33 17.9
002EF6D0 2019-04-22 07:32:30 15.6 33 17.9
002EF6D0 2019-04-22 06:58:19 15.6 33 18
002EF6D0 2019-04-22 04:41:30 15.6 33 13.7
002EF6D0 2019-04-22 03:33:06 15.4 33 13.7
002EF6D0 2019-04-22 01:16:20 15.4 33 13.8
002EF6D0 2019-04-22 00:42:09 15.4 33 13.8
002EF6D0 2019-04-22 00:07:56 15.4 33 13.8
002EF6D0 2019-04-21 23:33:47 15.4 33 13.9
002EF6D0 2019-04-21 22:59:37 15.4 33 14
002EF6D0 2019-04-21 22:25:21 15.4 33 14.1
002EF6D0 2019-04-21 21:51:09 15.4 33 14.3
002EF6D0 2019-04-21 21:16:57 15.4 33 14.3
002EF6D0 2019-04-21 20:42:44 15.4 33 14.2
002EF6D0 2019-04-21 20:08:32 15.4 33 14
002EF6D0 2019-04-21 19:34:21 15.4 33 13.8
002EF6D0 2019-04-21 19:00:07 15.4 33 13.8
002EF6D0 2019-04-21 18:25:54 15.4 33 13.6
002EF6D0 2019-04-21 17:51:42 15.4 33 13.7
002EF6D0 2019-04-21 17:17:30 15.4 33 13.4
002EF6D0 2019-04-21 16:43:19 15.4 33 13.1
002EF6D0 2019-04-21 16:09:06 15.4 33 13.1
002EF6D0 2019-04-21 15:34:54 15.4 33 13.1
002EF6D0 2019-04-21 15:00:43 15.4 33 12.9
002EF6D0 2019-04-21 14:26:31 15.4 33 12.9
002EF6D0 2019-04-21 13:52:20 15.4 33 12.7
002EF6D0 2019-04-21 13:18:07 15.4 33 12.8
002EF6D0 2019-04-21 12:43:55 15.4 32 12.9
002EF6D0 2019-04-21 12:09:43 15.4 32 13.1
002EF6D0 2019-04-21 11:35:31 15.4 32 13.1
002EF6D0 2019-04-21 11:01:21 15.5 32 13.2
002EF6D0 2019-04-21 10:27:10 15.5 32 13.2
002EF6D0 2019-04-21 09:52:56 15.6 32 13.2
002EF6D0 2019-04-21 09:18:45 15.6 32 13.2
002EF6D0 2019-04-21 08:44:34 15.6 32 13.2
002EF6D0 2019-04-21 08:10:22 15.6 32 13.4
002EF6D0 2019-04-21 07:36:11 15.6 32 13.4
002EF6D0 2019-04-21 07:01:59 15.6 32 13.6
002EF6D0 2019-04-21 06:27:50 15.6 32 13.8
002EF6D0 2019-04-21 05:53:36 15.6 32 13.8
002EF6D0 2019-04-21 05:19:25 15.6 32 13.9
002EF6D0 2019-04-21 04:45:14 15.6 32 13.8
002EF6D0 2019-04-21 04:11:03 15.6 32 14.2
002EF6D0 2019-04-21 03:36:51 15.6 32 14.4
002EF6D0 2019-04-21 03:02:40 15.6 32 14.8
002EF6D0 2019-04-21 02:28:28 15.6 32 15
002EF6D0 2019-04-21 01:54:15 15.6 32 15.2
002EF6D0 2019-04-21 01:20:03 15.6 32 15.4
002EF6D0 2019-04-21 00:45:51 15.6 32 15.4
002EF6D0 2019-04-21 00:11:39 15.6 32 15.4
002EF6D0 2019-04-20 23:37:27 15.6 32 15.6
002EF6D0 2019-04-20 23:03:15 15.6 32 15.7
002EF6D0 2019-04-20 22:29:03 15.6 32 15.8
002EF6D0 2019-04-20 21:54:51 15.6 32 15.8
002EF6D0 2019-04-20 21:20:39 15.6 32 15.8
002EF6D0 2019-04-20 20:46:29 15.6 32 15.9
002EF6D0 2019-04-20 20:12:15 15.6 32 16.1
002EF6D0 2019-04-20 19:38:03 15.6 32 16.2
002EF6D0 2019-04-20 19:03:50 15.6 32 16.3
002EF6D0 2019-04-20 18:29:37 15.6 32 16.4
002EF6D0 2019-04-20 17:55:25 15.6 32 16.4
002EF6D0 2019-04-20 17:21:12 15.6 32 16.2
002EF6D0 2019-04-20 16:46:59 15.6 32 16.4
002EF6D0 2019-04-20 16:12:46 15.6 32 16.5
002EF6D0 2019-04-20 15:38:33 15.6 32 16.6
002EF6D0 2019-04-20 15:04:19 15.6 32 16.7
002EF6D0 2019-04-20 14:30:06 15.6 32 16.7
002EF6D0 2019-04-20 13:55:54 15.6 32 16.5
002EF6D0 2019-04-20 13:21:41 15.6 32 16.4
002EF6D0 2019-04-20 12:47:28 15.6 32 16.3
002EF6D0 2019-04-20 12:13:16 15.6 32 16.3
002EF6D0 2019-04-20 11:39:05 15.6 32 16.4
002EF6D0 2019-04-20 11:04:53 15.6 32 16.6
002EF6D0 2019-04-20 10:30:41 15.6 32 16.7
002EF6D0 2019-04-20 09:56:34 15.7 32 16.8
002EF6D0 2019-04-20 09:22:18 15.7 32 17.1
002EF6D0 2019-04-20 08:48:07 15.8 32 17.1
002EF6D0 2019-04-20 08:13:58 15.8 32 17
002EF6D0 2019-04-20 07:39:45 15.8 32 17.2
002EF6D0 2019-04-20 07:05:33 15.8 32 17.3
002EF6D0 2019-04-20 06:31:21 15.8 32 17.4
002EF6D0 2019-04-20 05:57:09 15.8 32 17.5
002EF6D0 2019-04-20 05:22:58 15.8 32 17.6
002EF6D0 2019-04-20 04:48:49 15.8 32 17.7
002EF6D0 2019-04-20 04:14:37 15.8 32 17.7
002EF6D0 2019-04-20 03:40:25 15.8 32 17.8
002EF6D0 2019-04-20 03:06:14 15.8 32 17.8
002EF6D0 2019-04-20 02:32:03 15.9 32 17.7
002EF6D0 2019-04-20 01:57:53 15.9 32 17.8
002EF6D0 2019-04-20 01:23:41 16 32 17.9
002EF6D0 2019-04-20 00:49:30 16 32 17.9
002EF6D0 2019-04-20 00:15:18 16 32 18
002EF6D0 2019-04-19 23:41:07 16 32 18.1
002EF6D0 2019-04-19 23:06:56 16 32 18.1
002EF6D0 2019-04-19 22:32:44 16 32 18.1
002EF6D0 2019-04-19 21:58:33 16 32 18.1
002EF6D0 2019-04-19 21:24:21 16 32 17.9
002EF6D0 2019-04-19 20:50:08 16 32 17.7
002EF6D0 2019-04-19 20:15:57 16 32 17.7
002EF6D0 2019-04-19 19:41:44 16 32 17.5
002EF6D0 2019-04-19 19:07:33 16 32 17.2
002EF6D0 2019-04-19 18:33:22 16 32 17.1
002EF6D0 2019-04-19 17:59:10 16 32 17.1
002EF6D0 2019-04-19 17:24:59 16 32 16.8
002EF6D0 2019-04-19 16:50:46 16 32 16.9
002EF6D0 2019-04-19 16:16:34 16 32 16.9
002EF6D0 2019-04-19 15:42:22 16 32 17
002EF6D0 2019-04-19 15:08:10 16 32 17
002EF6D0 2019-04-19 14:33:58 15.9 32 16.8
002EF6D0 2019-04-19 13:59:45 15.9 32 16.9
002EF6D0 2019-04-19 13:25:33 16 32 16.8
002EF6D0 2019-04-19 12:51:23 15.8 31 16.9
002EF6D0 2019-04-19 12:17:11 15.9 32 17
002EF6D0 2019-04-19 11:43:00 16 32 16.9
002EF6D0 2019-04-19 11:08:48 15.9 31 16.8
002EF6D0 2019-04-19 10:34:38 16 31 16.8
002EF6D0 2019-04-19 10:00:30 16 31 16.8
002EF6D0 2019-04-19 09:26:17 16 31 16.9
002EF6D0 2019-04-19 08:52:06 16 31 17.4
002EF6D0 2019-04-19 08:17:54 16 31 17.6
002EF6D0 2019-04-19 07:43:43 16 31 17.7
002EF6D0 2019-04-19 07:09:33 16 31 17.8
002EF6D0 2019-04-19 06:35:21 16 31 18
002EF6D0 2019-04-19 06:01:12 16.1 31 18.5
002EF6D0 2019-04-19 05:27:01 16.1 31 19.5
002EF6D0 2019-04-19 04:52:50 16.2 31 19.7
002EF6D0 2019-04-19 04:18:39 16.2 31 20.3
002EF6D0 2019-04-19 03:44:27 16.3 31 20.6
002EF6D0 2019-04-19 03:10:15 16.3 31 20.9
002EF6D0 2019-04-19 02:36:04 16.3 31 21.3
002EF6D0 2019-04-19 02:01:54 16.3 31 21.6
002EF6D0 2019-04-19 01:27:43 16.4 31 21.5
002EF6D0 2019-04-19 00:53:33 16.4 31 21.9
002EF6D0 2019-04-19 00:19:22 16.5 31 22.1
002EF6D0 2019-04-18 23:45:10 16.5 31 22.2
002EF6D0 2019-04-18 23:10:58 16.5 31 22.5
002EF6D0 2019-04-18 22:36:47 16.5 31 22.8
002EF6D0 2019-04-18 22:02:36 16.5 31 22.8
002EF6D0 2019-04-18 21:28:26 16.5 31 22.7
002EF6D0 2019-04-18 20:54:14 16.5 31 22.8
002EF6D0 2019-04-18 20:20:04 16.5 31 22.8
002EF6D0 2019-04-18 19:45:53 16.5 31 22.8
002EF6D0 2019-04-18 19:11:42 16.5 31 22.8
002EF6D0 2019-04-18 18:37:32 16.5 31 22.7
002EF6D0 2019-04-18 18:03:22 16.5 31 22.7
002EF6D0 2019-04-18 17:29:11 16.5 31 22.8
002EF6D0 2019-04-18 16:55:00 16.5 31 22.8
002EF6D0 2019-04-18 16:20:48 16.4 31 22.8
002EF6D0 2019-04-18 15:46:36 16.4 31 22.7
002EF6D0 2019-04-18 15:12:24 16.3 31 22.3
002EF6D0 2019-04-18 14:38:12 16.3 31 22.2
002EF6D0 2019-04-18 14:03:59 16.3 31 22
002EF6D0 2019-04-18 13:29:46 16.3 31 21.9
002EF6D0 2019-04-18 12:55:33 16.4 31 21.9
002EF6D0 2019-04-18 12:21:22 16.3 31 21.7
002EF6D0 2019-04-18 11:47:09 16.5 31 21.6
002EF6D0 2019-04-18 11:12:57 16.4 31 21.9
002EF6D0 2019-04-18 10:38:45 16.5 31 21.6
002EF6D0 2019-04-18 10:04:33 16.4 31 21.8
002EF6D0 2019-04-18 09:30:23 16.5 31 21.8
002EF6D0 2019-04-18 08:56:12 16.5 31 21.7
002EF6D0 2019-04-18 08:22:02 16.5 31 21.3
002EF6D0 2019-04-18 07:47:52 16.5 31 21.5
002EF6D0 2019-04-18 07:13:41 16.6 31 21.7
002EF6D0 2019-04-18 06:39:31 16.5 31 21.8
002EF6D0 2019-04-18 06:05:19 16.6 31 21.8
002EF6D0 2019-04-18 05:31:08 16.6 31 21.8
002EF6D0 2019-04-18 04:56:58 16.7 31 21.7
002EF6D0 2019-04-18 04:22:48 16.7 31 22
002EF6D0 2019-04-18 03:48:37 16.7 31 21.9
002EF6D0 2019-04-18 03:14:27 16.7 31 22.8
002EF6D0 2019-04-18 02:40:16 16.7 31 22.9
002EF6D0 2019-04-18 02:06:04 16.9 31 23
002EF6D0 2019-04-18 01:31:52 16.9 31 23.7
002EF6D0 2019-04-18 00:57:40 16.9 31 24.4
002EF6D0 2019-04-18 00:23:29 16.9 31 24.5
002EF6D0 2019-04-17 23:49:18 16.9 31 24.5
002EF6D0 2019-04-17 23:15:06 16.9 31 24.6
002EF6D0 2019-04-17 22:40:54 17 31 24.5
002EF6D0 2019-04-17 22:06:44 17 31 24.5
002EF6D0 2019-04-17 21:32:31 16.9 31 24.4
002EF6D0 2019-04-17 20:58:20 17 30 24.3
002EF6D0 2019-04-17 20:24:08 17.1 30 24.3
002EF6D0 2019-04-17 19:49:58 17.1 30 24.2
002EF6D0 2019-04-17 19:15:47 17.1 30 24.2
002EF6D0 2019-04-17 18:41:36 17.1 30 24.2
002EF6D0 2019-04-17 18:07:25 17.1 30 24.3
002EF6D0 2019-04-17 17:33:15 17.1 30 24.4
002EF6D0 2019-04-17 16:59:04 17.1 30 24.5
002EF6D0 2019-04-17 16:24:54 17.1 30 24.6
002EF6D0 2019-04-17 15:50:44 17.2 30 24.6
002EF6D0 2019-04-17 15:16:33 17.3 29 24.8
002EF6D0 2019-04-17 14:42:22 17.3 29 24.9
002EF6D0 2019-04-17 14:08:12 17.3 28 24.9
002EF6D0 2019-04-17 13:34:01 17.3 28 25
002EF6D0 2019-04-17 12:59:51 17.3 28 24.6
002EF6D0 2019-04-17 12:25:40 17.3 28 24.5
002EF6D0 2019-04-17 11:51:31 17.3 28 24.4
002EF6D0 2019-04-17 11:17:20 17.5 28 23.7
002EF6D0 2019-04-17 10:43:10 17.5 28 23
002EF6D0 2019-04-17 10:09:00 17.5 28 22.8
002EF6D0 2019-04-17 09:34:50 17.7 28 22.7
002EF6D0 2019-04-17 09:00:38 17.8 28 22.5
002EF6D0 2019-04-17 08:26:27 18 28 22.5
002EF6D0 2019-04-17 07:52:14 18 28 22.4
002EF6D0 2019-04-17 07:18:03 18.2 28 22.3
002EF6D0 2019-04-17 06:43:52 18.2 28 22.5
002EF6D0 2019-04-17 06:09:40 18.3 28 22.4
002EF6D0 2019-04-17 05:35:29 18.4 28 22.4
002EF6D0 2019-04-17 05:01:18 18.4 28 22.4
002EF6D0 2019-04-17 04:27:07 18.5 28 22.5
002EF6D0 2019-04-17 03:52:55 18.6 28 22.3
002EF6D0 2019-04-17 03:18:44 18.6 28 21.9
002EF6D0 2019-04-17 02:44:32 18.6 28 21.5
002EF6D0 2019-04-17 02:10:22 18.8 28 21.2
002EF6D0 2019-04-17 01:36:10 18.8 28 21
002EF6D0 2019-04-17 01:02:00 18.8 28 20.4
002EF6D0 2019-04-17 00:27:50 18.8 27 19.9
002EF6D0 2019-04-16 23:53:39 18.9 27 19.6
002EF6D0 2019-04-16 23:19:27 19 27 19.2
002EF6D0 2019-04-16 22:45:17 19 26 18.7
002EF6D0 2019-04-16 22:11:05 19.3 26 18.7
002EF6D0 2019-04-16 21:36:54 19.5 26 18.6
002EF6D0 2019-04-16 21:02:42 19.6 26 18.4
002EF6D0 2019-04-16 20:28:31 19.7 26 18.2
002EF6D0 2019-04-16 19:54:20 19.7 26 18
002EF6D0 2019-04-16 19:20:08 19.9 26 17.9
002EF6D0 2019-04-16 18:45:57 19.9 26 17.9
002EF6D0 2019-04-16 18:11:48 19.9 26 17.7
002EF6D0 2019-04-16 16:29:16 20.3 25 17.5
002EF6D0 2019-04-16 15:55:06 20.3 25 17.4
002EF6D0 2019-04-16 15:20:54 20.5 25 16.3
002EF6D0 2019-04-16 14:46:44 20.7 25 15.9
002EF6D0 2019-04-16 13:38:22 21 26 15.3
002EF6D0 2019-04-16 13:04:11 21 26 14.3
002EF6D0 2019-04-16 12:30:00 21 26 12
002EF6D0 2019-04-16 11:55:47 20.8 27 12.1
002EF6D0 2019-04-16 11:21:36 20.6 27 11.9
002EF6D0 2019-04-16 10:47:25 20.5 28 12.3
002EF6D0 2019-04-16 10:13:14 20.5 28 12.1
002EF6D0 2019-04-16 09:39:00 20.5 28 12.1
002EF6D0 2019-04-16 09:04:48 20.5 27 12.8
002EF6D0 2019-04-16 08:30:37 20.5 27 13
002EF6D0 2019-04-16 07:56:25 20.5 27 12.9
002EF6D0 2019-04-16 07:22:14 20.5 27 13
002EF6D0 2019-04-16 06:48:07 20.5 27 13.2
002EF6D0 2019-04-16 06:13:53 20.5 27 13.1
002EF6D0 2019-04-16 05:05:33 20.5 27 13.1
002EF6D0 2019-04-16 03:57:09 20.5 27 13.2
002EF6D0 2019-04-16 03:22:59 20.5 26 16.3
002EF6D0 2019-04-16 02:48:46 20.5 26 17.6
002EF6D0 2019-04-16 01:40:24 20.5 26 18.2
002EF6D0 2019-04-16 01:06:12 20.5 26 18.6
002EF6D0 2019-04-15 23:57:49 20.5 26 19.8
002EF6D0 2019-04-15 23:23:43 20.5 26 20.6
002EF6D0 2019-04-15 22:49:29 20.5 26 21.1
002EF6D0 2019-04-15 22:15:18 20.5 26 21.4
002EF6D0 2019-04-15 21:41:07 20.5 25 21.7
002EF6D0 2019-04-15 21:06:56 20.6 25 22
002EF6D0 2019-04-15 20:32:49 20.6 25 22.4
002EF6D0 2019-04-15 19:58:34 20.7 25 22.6
002EF6D0 2019-04-15 18:50:17 20.7 25 22.9
002EF6D0 2019-04-15 18:16:02 20.7 25 23.7
002EF6D0 2019-04-15 17:41:51 20.9 24 23.8
002EF6D0 2019-04-15 17:07:40 21 24 24.2
002EF6D0 2019-04-15 16:33:29 21 24 24.5
002EF6D0 2019-04-15 15:59:19 21 23 24.7
002EF6D0 2019-04-15 15:25:08 21.2 23 24.8
002EF6D0 2019-04-15 14:51:00 21.2 22 25.3
002EF6D0 2019-04-15 14:16:44 21.4 21 25.4
002EF6D0 2019-04-15 13:42:34 21.6 21 25.5
002EF6D0 2019-04-15 13:08:21 21.8 19 25.6
002EF6D0 2019-04-15 12:34:10 22 18 25.8
002EF6D0 2019-04-15 11:59:58 22.5 17 26
002EF6D0 2019-04-15 11:25:45 22.5 16 25.9
002EF6D0 2019-04-15 10:51:32 22.5 16 25.9
002EF6D0 2019-04-15 10:17:21 22.5 16 26
002EF6D0 2019-04-15 09:43:09 22.4 16 26
002EF6D0 2019-04-15 09:08:57 22.2 16 25.9
002EF6D0 2019-04-15 08:34:44 22.2 16 25.8
002EF6D0 2019-04-15 08:00:32 22 16 25.8
002EF6D0 2019-04-15 07:26:20 22 16 25.9
002EF6D0 2019-04-15 06:52:07 22 16 25.9
002EF6D0 2019-04-15 06:17:55 22 16 25.9
002EF6D0 2019-04-15 05:43:41 22 17 25.8
002EF6D0 2019-04-15 05:09:29 21.9 17 26.1
002EF6D0 2019-04-15 04:35:18 21.9 17 26.1
002EF6D0 2019-04-15 04:01:07 21.9 17 25.8
002EF6D0 2019-04-15 03:26:54 21.9 17 25.9
002EF6D0 2019-04-15 02:52:43 21.9 17 25.7
002EF6D0 2019-04-15 02:18:32 21.8 17 25.6
002EF6D0 2019-04-15 01:44:21 21.8 17 25.6
002EF6D0 2019-04-15 01:10:09 21.8 17 25.6
002EF6D0 2019-04-15 00:35:56 21.8 17 25.2
002EF6D0 2019-04-15 00:01:44 21.8 17 25.2
002EF6D0 2019-04-14 23:27:31 21.9 17 25.2
002EF6D0 2019-04-14 22:53:18 21.9 17 25.4
002EF6D0 2019-04-14 22:19:07 22 17 25.7
002EF6D0 2019-04-14 21:44:55 22 18 25.9
002EF6D0 2019-04-14 21:10:42 22 18 25.8
002EF6D0 2019-04-14 20:36:29 22 18 25.7
002EF6D0 2019-04-14 20:02:16 22.2 18 25.7
002EF6D0 2019-04-14 19:28:03 22.1 18 25.7
002EF6D0 2019-04-14 18:53:51 22.2 17 25.6
002EF6D0 2019-04-14 18:19:39 22.1 17 25.7
002EF6D0 2019-04-14 17:45:26 22 17 25.7
002EF6D0 2019-04-14 17:11:14 22 17 26
002EF6D0 2019-04-14 16:37:01 22 17 26.3
002EF6D0 2019-04-14 16:02:48 22 17 26.6
002EF6D0 2019-04-14 15:28:35 22 17 26.6
002EF6D0 2019-04-14 14:54:23 22 17 26.4
002EF6D0 2019-04-14 14:20:09 22 18 26.5
002EF6D0 2019-04-14 13:45:57 22 18 26.4
002EF6D0 2019-04-14 13:11:46 22 18 26.5
002EF6D0 2019-04-14 12:37:34 22 18 26.5
002EF6D0 2019-04-14 12:03:22 22 18 26.5
002EF6D0 2019-04-14 11:29:10 22 18 26.5
002EF6D0 2019-04-14 10:54:58 22 18 26.5
002EF6D0 2019-04-14 10:20:47 22 18 26.6
002EF6D0 2019-04-14 09:46:34 22 18 26.8
002EF6D0 2019-04-14 09:12:22 22 18 26.9
002EF6D0 2019-04-14 08:38:10 22 18 26.9
002EF6D0 2019-04-14 08:03:57 22 17 26.6
002EF6D0 2019-04-14 07:29:44 22 17 26.4
002EF6D0 2019-04-14 06:55:31 22 17 26.5
002EF6D0 2019-04-14 06:21:19 22 17 26.5
002EF6D0 2019-04-14 05:47:06 22 17 26.4
002EF6D0 2019-04-14 05:12:54 22 17 26.4
002EF6D0 2019-04-14 04:38:42 22 17 26.5
002EF6D0 2019-04-14 04:04:30 22 17 26.5
002EF6D0 2019-04-14 03:30:17 22 17 26.4
002EF6D0 2019-04-14 02:56:05 22 17 26.4
002EF6D0 2019-04-14 02:21:52 22 17 26.2
002EF6D0 2019-04-14 01:47:39 22 17 25.9
002EF6D0 2019-04-14 01:13:27 22 17 25.9
002EF6D0 2019-04-14 00:39:14 22 17 25.8
002EF6D0 2019-04-14 00:05:04 22 17 25.8
002EF6D0 2019-04-13 23:30:52 22 17 25.9
002EF6D0 2019-04-13 22:56:41 22.1 17 25.9
002EF6D0 2019-04-13 22:22:29 22.1 17 25.9
002EF6D0 2019-04-13 21:48:16 22.1 17 26
002EF6D0 2019-04-13 21:14:03 22.2 17 26.3
002EF6D0 2019-04-13 20:39:51 22.2 17 26.4
002EF6D0 2019-04-13 20:05:39 22.2 17 26.4
002EF6D0 2019-04-13 19:31:26 22.2 17 26.1
002EF6D0 2019-04-13 18:57:13 22.2 17 26.1
002EF6D0 2019-04-13 18:23:00 22.3 17 26
002EF6D0 2019-04-13 17:48:48 22.3 17 26
002EF6D0 2019-04-13 17:14:35 22.4 17 26
002EF6D0 2019-04-13 16:40:22 22.3 17 25.9
002EF6D0 2019-04-13 16:06:10 22.5 17 25.9
002EF6D0 2019-04-13 15:31:56 22.5 17 25.9
002EF6D0 2019-04-13 14:57:43 22.5 17 25.9
002EF6D0 2019-04-13 14:23:30 22.5 17 25.9
002EF6D0 2019-04-13 13:49:18 22.5 17 26.2
002EF6D0 2019-04-13 13:15:06 22.5 17 26.2
002EF6D0 2019-04-13 12:40:53 22.5 17 25.8
002EF6D0 2019-04-13 12:06:41 22.5 17 25.8
002EF6D0 2019-04-13 11:32:28 22.5 17 25.9
002EF6D0 2019-04-13 10:58:15 22.5 17 25.7
002EF6D0 2019-04-13 10:24:02 22.5 17 25.7
002EF6D0 2019-04-13 09:49:49 22.5 17 25.6
002EF6D0 2019-04-13 09:15:37 22.5 17 25.9
002EF6D0 2019-04-13 08:41:24 22.5 17 25.9
002EF6D0 2019-04-13 08:07:11 22.4 17 25.9
002EF6D0 2019-04-13 07:32:58 22.5 16 25.8
002EF6D0 2019-04-13 06:58:45 22.5 16 25.6
002EF6D0 2019-04-13 06:24:33 22.5 16 25.6
002EF6D0 2019-04-13 05:50:19 22.5 16 25.6
002EF6D0 2019-04-13 05:16:06 22.5 16 25.7
002EF6D0 2019-04-13 04:41:52 22.5 16 26
002EF6D0 2019-04-13 04:07:39 22.5 16 26.3
002EF6D0 2019-04-13 03:33:25 22.5 16 26.2
002EF6D0 2019-04-13 02:59:10 22.5 17 26.1
002EF6D0 2019-04-13 02:24:56 22.5 17 26.2
002EF6D0 2019-04-13 01:50:42 22.5 17 26.3
002EF6D0 2019-04-13 01:16:28 22.6 17 26.4
002EF6D0 2019-04-13 00:42:14 22.7 17 26.4
002EF6D0 2019-04-13 00:08:00 22.7 17 26.5
002EF6D0 2019-04-12 23:33:46 22.7 17 26.2
002EF6D0 2019-04-12 22:59:33 22.7 17 26.3
002EF6D0 2019-04-12 22:25:20 22.7 17 26.4
002EF6D0 2019-04-12 21:51:05 22.9 17 26.6
002EF6D0 2019-04-12 21:16:52 22.9 17 26.6
002EF6D0 2019-04-12 20:42:39 22.9 17 26.8
002EF6D0 2019-04-12 20:08:25 22.9 17 27
002EF6D0 2019-04-12 19:34:11 22.9 17 27.2
002EF6D0 2019-04-12 18:59:57 23.1 16 26.8
002EF6D0 2019-04-12 18:25:42 23.1 16 26.9
002EF6D0 2019-04-12 17:51:28 23.3 16 27
002EF6D0 2019-04-12 17:17:13 23.3 16 27
002EF6D0 2019-04-12 16:42:59 23.4 17 27
002EF6D0 2019-04-12 16:08:44 23.3 18 27.1
002EF6D0 2019-04-12 15:34:31 23.3 18 27.5
002EF6D0 2019-04-12 15:00:16 23.1 17 27.4
002EF6D0 2019-04-12 14:26:01 22.9 18 26
002EF6D0 2019-04-12 13:51:46 22.5 19 19.9
002EF6D0 2019-04-12 13:17:31 21.8 20 10.7